[[{"header":{"parameterUnit":"m.s-1","parameterCategory":1,"la1":30.2991,"la2":30.254,"lo1":-89.0895,"lo2":-89.0444,"dy":0.0017,"dx":0.0017,"nx":28,"ny":28,"refTime":"2023-04-06T21:00:00:Z","depth":0,"parameterNumber":2,"parameterNumberName":"U-component_of_WINDS"},"data":[0,0,0,0,0,0,0,0,0,0,0,0,0,0,0,0,0,0,0,0,0,0,0,0,0,0,0,0,0,0,0,0,0,0,0,0,0,0,0,0,0,0,0,0,0,0,0,0,0,0,0,0,0,0,0,0,0,0,-3.0381,-3.0381,0,-3.0393,-3.0393,-3.0393,-3.0364,-3.0363,-3.0363,-3.0362,-3.0375,-3.0376,-3.0378,0,0,0,0,0,0,0,0,0,0,0,0,0,-3.0338,-3.0339,-3.0381,-3.0381,-3.0382,-3.0393,-3.0393,-3.0393,-3.0365,-3.0363,-3.0362,-3.0361,-3.0375,-3.0376,-3.0378,0,0,0,0,0,0,0,0,0,0,0,0,0,-3.0354,-3.0339,-3.0381,-3.0369,-3.0368,-3.0393,-3.0393,-3.0393,-3.0365,-3.0363,-3.0362,-3.0361,-3.0374,-3.0376,-3.0378,-3.0416,0,0,-3.0383,-3.0384,0,0,0,0,0,0,0,0,-3.0353,-3.0356,-3.037,-3.037,-3.0368,-3.0376,-3.0383,-3.0401,-3.0365,-3.0366,-3.0362,-3.036,-3.0377,-3.0378,-3.0383,-3.0417,-3.0418,-3.0384,-3.0385,-3.0385,-3.0386,0,0,0,0,0,0,0,-3.0352,-3.0355,-3.0386,-3.0371,-3.0369,-3.0364,-3.0364,-3.0386,-3.0379,-3.0366,-3.0364,-3.0365,-3.0376,-3.0382,-3.0383,-3.0418,-3.0383,-3.0385,-3.0386,-3.0387,-3.0487,-3.0489,0,0,0,0,0,0,-3.0352,-3.0354,-3.0386,-3.0386,-3.0357,-3.0366,-3.0366,-3.0375,-3.0378,-3.0378,-3.0367,-3.0364,-3.0379,-3.0381,-3.0384,-3.0431,-3.0385,-3.0387,-3.0388,-3.0486,-3.0488,-3.0489,0,0,0,0,0,0,-3.0351,-3.0355,-3.0385,-3.037,-3.0373,-3.0368,-3.0378,-3.0376,-3.0381,-3.0379,-3.0378,-3.0374,-3.0378,-3.0381,-3.0409,-3.0431,-3.0388,-3.039,-3.0484,-3.0486,-3.0489,-3.0524,0,0,0,0,0,0,-3.035,-3.0355,-3.0368,-3.037,-3.0374,-3.0409,-3.0379,-3.0377,-3.0385,-3.0381,-3.0385,-3.0385,-3.0377,-3.0407,-3.0411,-3.0432,-3.0391,-3.0482,-3.0485,-3.0488,-3.0521,-3.0527,-3.0533,0,0,0,0,0,-3.0349,-3.0378,-3.0369,-3.0373,-3.0391,-3.041,-3.0412,-3.0403,-3.0386,-3.0401,-3.04,-3.0385,-3.0428,-3.041,-3.0414,-3.0437,-3.048,-3.0484,-3.0488,-3.0518,-3.0526,-3.0533,0,0,0,0,0,0,-3.0378,-3.0377,-3.0368,-3.0398,-3.0405,-3.0405,-3.0422,-3.0411,-3.0422,-3.0419,-3.0408,-3.0409,-3.0439,-3.0441,-3.0421,-3.0476,-3.0452,-3.0456,-3.0473,-3.0481,-3.0487,-3.0485,-3.0392,0,0,0,0,0,-3.0388,-3.0403,-3.0402,-3.0429,-3.0433,-3.0428,-3.0436,-3.0428,-3.0434,-3.0437,-3.0438,-3.0445,-3.0461,-3.0471,-3.0485,-3.0522,-3.0523,-3.054,-3.0546,-3.0551,-3.0554,-3.0576,-3.0584,-3.0501,-3.0501,-3.0501,0,0,-3.0409,-3.041,-3.042,-3.0435,-3.0439,-3.0457,-3.043,-3.0448,-3.0462,-3.044,-3.0466,-3.0468,-3.0476,-3.0509,-3.0523,-3.0511,-3.0578,-3.0555,-3.0559,-3.056,-3.0581,-3.0589,-3.0596,-3.0503,-3.0503,-3.0503,0,0,-3.0455,-3.0457,-3.0481,-3.0486,-3.0493,-3.049,-3.0496,-3.0499,-3.0499,-3.0526,-3.051,-3.0527,-3.0553,-3.056,-3.0567,-3.0621,-3.0608,-3.0626,-3.0656,-3.0678,-3.0684,-3.069,-3.071,-3.0718,-3.063,-3.063,-3.063,0,-3.048,-3.0504,-3.0494,-3.0515,-3.0523,-3.0505,-3.053,-3.0536,-3.0547,-3.0553,-3.054,-3.0575,-3.0578,-3.0614,-3.0627,-3.0633,-3.0641,-3.0624,-3.0684,-3.069,-3.0695,-3.0714,-3.0722,-3.0632,-3.0632,-3.0632,-3.0632,0,-3.0535,-3.0553,-3.0571,-3.0583,-3.0593,-3.0615,-3.0611,-3.0623,-3.0616,-3.0615,-3.0644,-3.0648,-3.0664,-3.0672,-3.0665,-3.0708,-3.07,-3.0686,-3.0661,-3.0705,-3.0723,-3.073,-3.0635,-3.0635,-3.0634,-3.0633,0,0,-3.0597,-3.0605,-3.0612,-3.0618,-3.0626,-3.064,-3.0664,-3.0679,-3.069,-3.07,-3.072,-3.0745,-3.0733,-3.0741,-3.0735,-3.0754,-3.0798,-3.0737,-3.0737,-3.0749,-3.0847,-3.0858,-3.0866,-3.0791,-3.0792,-3.0793,-3.0847,0,-3.0643,-3.0681,-3.0675,-3.0713,-3.0731,-3.0716,-3.0737,-3.0745,-3.0746,-3.0762,-3.0764,-3.0782,-3.0763,-3.0768,-3.0787,-3.0789,-3.0818,-3.0785,-3.081,-3.0811,-3.0808,-3.0875,-3.0886,-3.0936,-3.0854,-3.0855,-3.0856,0,-3.07,-3.0713,-3.0753,-3.0761,-3.0768,-3.0786,-3.0802,-3.0817,-3.0827,-3.0827,-3.0838,-3.083,-3.0855,-3.0832,-3.0868,-3.0846,-3.0856,-3.086,-3.0861,-3.0862,-3.0835,-3.0878,-3.0952,-3.096,-3.0866,-3.0866,-3.0865,0,-3.0742,-3.0769,-3.0797,-3.0803,-3.0813,-3.0827,-3.0832,-3.084,-3.0851,-3.0866,-3.0873,-3.089,-3.09,-3.0914,-3.0912,-3.0895,-3.095,-3.0925,-3.0951,-3.0951,-3.0962,-3.0961,-3.1038,-3.097,-3.0969,-3.0969,-3.0969,0,-3.0794,-3.0819,-3.0816,-3.0833,-3.0862,-3.0857,-3.0886,-3.0889,-3.0898,-3.0917,-3.0906,-3.0925,-3.0921,-3.094,-3.0938,-3.097,-3.0974,-3.0975,-3.0975,-3.0976,-3.0976,-3.0982,-3.0978,-3.0971,-3.0971,-3.097,-3.097,0,-3.0844,-3.0843,-3.0873,-3.0881,-3.0884,-3.0905,-3.0912,-3.0929,-3.0931,-3.0955,-3.0961,-3.0963,-3.0985,-3.0985,-3.101,-3.101,-3.1048,-3.1043,-3.1044,-3.1043,-3.1069,-3.1067,-3.1152,-3.1164,-3.1088,-3.1089,-3.109,0,-3.0876,-3.0896,-3.0906,-3.0918,-3.0924,-3.0943,-3.0955,-3.0952,-3.0964,-3.098,-3.0996,-3.1017,-3.1033,-3.107,-3.1075,-3.1095,-3.1091,-3.112,-3.1094,-3.1095,-3.1092,-3.1091,-3.1093,-3.1124,-3.1125,-3.1126,-3.1126,0,-3.0935,-3.0934,-3.095,-3.0968,-3.0982,-3.0996,-3.1008,-3.1019,-3.1017,-3.1033,-3.1055,-3.1068,-3.1095,-3.1117,-3.1137,-3.1144,-3.1136,-3.1135,-3.1142,-3.1143,-3.1143,-3.1144,-3.1058,-3.1132,-3.1132,-3.1131,-3.1131,-3.1131,-3.0977,-3.0994,-3.1005,-3.1025,-3.1034,-3.1047,-3.1064,-3.1069,-3.1087,-3.1108,-3.1106,-3.1132,-3.1146,-3.1172,-3.1181,-3.1202,-3.1192,-3.1202,-3.1205,-3.1207,-3.1211,-3.114,-3.1206,-3.1206,-3.1206,-3.1205,-3.1205,0,-3.1035,-3.1042,-3.106,-3.1079,-3.1095,-3.1086,-3.1101,-3.1115,-3.1138,-3.1151,-3.1168,-3.1196,-3.1218,-3.1226,-3.1248,-3.1264,-3.1261,-3.127,-3.1269,-3.1271,-3.1218,-3.1209,-3.1272,-3.1272,-3.1272,-3.1272,-3.1272,-3.1272,-3.1067,-3.1096,-3.1097,-3.1133,-3.114,-3.1165,-3.1174,-3.1187,-3.1197,-3.1228,-3.1247,-3.1252,-3.1264,-3.1288,-3.1309,-3.1311,-3.132,-3.1331,-3.1331,-3.1281,-3.1274,-3.1268,-3.126,-3.1332,-3.1333,-3.1382,-3.1383,-3.1383]},{"header":{"parameterUnit":"m.s-1","parameterCategory":1,"la1":30.2991,"la2":30.254,"lo1":-89.0895,"lo2":-89.0444,"dy":0.0017,"dx":0.0017,"nx":28,"ny":28,"refTime":"2023-04-06T21:00:00:Z","depth":0,"parameterNumber":3,"parameterNumberName":"V-component_of_WINDS"},"data":[0,0,0,0,0,0,0,0,0,0,0,0,0,0,0,0,0,0,0,0,0,0,0,0,0,0,0,0,0,0,0,0,0,0,0,0,0,0,0,0,0,0,0,0,0,0,0,0,0,0,0,0,0,0,0,0,0,0,1.7302,1.7302,0,1.7327,1.7328,1.7328,1.7391,1.7392,1.7394,1.7395,1.7417,1.7416,1.7416,0,0,0,0,0,0,0,0,0,0,0,0,0,1.7305,1.7305,1.7302,1.7302,1.7302,1.7327,1.7328,1.7328,1.7391,1.7393,1.7394,1.7396,1.7417,1.7416,1.7415,0,0,0,0,0,0,0,0,0,0,0,0,0,1.7314,1.7305,1.7302,1.7337,1.734,1.7327,1.7328,1.7328,1.7391,1.7393,1.7395,1.7396,1.7417,1.7416,1.7415,1.7369,0,0,1.7412,1.7412,0,0,0,0,0,0,0,0,1.7314,1.7314,1.7331,1.7335,1.7338,1.7358,1.7337,1.7342,1.739,1.7371,1.7395,1.7397,1.7395,1.7396,1.7397,1.737,1.7371,1.7412,1.7412,1.7411,1.7411,0,0,0,0,0,0,0,1.7313,1.7313,1.7312,1.7332,1.7336,1.7351,1.7354,1.7338,1.7372,1.7373,1.7378,1.738,1.7398,1.7397,1.7398,1.7371,1.7412,1.7411,1.7411,1.741,1.7309,1.7307,0,0,0,0,0,0,1.7308,1.7312,1.7311,1.7313,1.7331,1.7349,1.7353,1.735,1.7372,1.7377,1.7378,1.7383,1.7398,1.7399,1.7399,1.7347,1.7411,1.741,1.741,1.7311,1.7309,1.7307,0,0,0,0,0,0,1.7308,1.7307,1.731,1.7314,1.7315,1.7347,1.7343,1.7349,1.7349,1.7376,1.7382,1.7372,1.74,1.74,1.7377,1.7349,1.741,1.7409,1.7314,1.7311,1.7308,1.7242,0,0,0,0,0,0,1.7307,1.7307,1.729,1.7313,1.7315,1.7288,1.7341,1.7348,1.7348,1.7354,1.7372,1.7377,1.7401,1.7378,1.7375,1.7348,1.7408,1.7317,1.7312,1.7309,1.7247,1.7238,1.7229,0,0,0,0,0,1.7307,1.7269,1.7288,1.7288,1.7295,1.7286,1.7287,1.7318,1.7345,1.7328,1.7346,1.7376,1.7352,1.7375,1.7373,1.7345,1.7318,1.7314,1.7309,1.7251,1.7239,1.7229,0,0,0,0,0,0,1.7239,1.7272,1.7295,1.7263,1.7271,1.7297,1.7276,1.7304,1.7304,1.7309,1.7346,1.7349,1.7321,1.7331,1.7355,1.7302,1.734,1.7335,1.7297,1.7286,1.7277,1.7275,1.7407,0,0,0,0,0,1.7221,1.7212,1.7241,1.721,1.7214,1.7244,1.7242,1.7265,1.7275,1.7278,1.7294,1.7302,1.7296,1.7291,1.7288,1.7249,1.7254,1.7229,1.722,1.7212,1.7207,1.7189,1.7179,1.7291,1.7291,1.7292,0,0,1.7182,1.7199,1.7191,1.7197,1.7207,1.7197,1.7247,1.7233,1.7227,1.7276,1.7256,1.7267,1.7278,1.7248,1.7235,1.7254,1.7178,1.7206,1.72,1.7199,1.7183,1.7173,1.7163,1.7288,1.7289,1.7289,0,0,1.7107,1.7118,1.7095,1.7104,1.7119,1.714,1.7134,1.7156,1.7166,1.7147,1.7185,1.7176,1.7165,1.7172,1.7174,1.7103,1.7131,1.7101,1.7054,1.7036,1.7027,1.7019,1.6995,1.6986,1.7096,1.7096,1.7095,0,1.7056,1.7044,1.7079,1.7064,1.7066,1.7113,1.7089,1.7096,1.7107,1.7107,1.713,1.7119,1.7129,1.7102,1.7085,1.7084,1.7079,1.7099,1.7025,1.7018,1.7011,1.6989,1.698,1.7092,1.7092,1.7093,1.7093,0,1.6982,1.6973,1.6952,1.6965,1.6964,1.6945,1.6977,1.6972,1.6995,1.7013,1.6994,1.7008,1.7009,1.7004,1.7025,1.698,1.6992,1.7019,1.7058,1.6996,1.6976,1.6967,1.7087,1.7088,1.7089,1.709,0,0,1.6863,1.6898,1.6889,1.6897,1.6917,1.691,1.6893,1.6896,1.6892,1.6898,1.6885,1.6876,1.6903,1.6905,1.6928,1.6912,1.6857,1.6941,1.6942,1.6926,1.6809,1.6789,1.6778,1.6876,1.6874,1.6873,1.6808,0,1.6794,1.6768,1.68,1.6768,1.676,1.6805,1.6791,1.6801,1.6818,1.6814,1.6832,1.6825,1.686,1.6862,1.6848,1.6866,1.6834,1.6871,1.6864,1.6863,1.686,1.6767,1.6746,1.6684,1.68,1.6799,1.6798,0,1.6709,1.6714,1.6681,1.6706,1.6704,1.669,1.6697,1.6692,1.6705,1.6719,1.6722,1.6751,1.6735,1.6774,1.6754,1.6778,1.6777,1.6786,1.6784,1.6785,1.6827,1.6766,1.6665,1.6656,1.6785,1.6786,1.6787,0,1.6627,1.6626,1.6607,1.6612,1.6639,1.6629,1.664,1.6655,1.6655,1.666,1.6661,1.6663,1.6664,1.6665,1.6693,1.6718,1.667,1.671,1.6681,1.668,1.6669,1.6669,1.6566,1.6666,1.6666,1.6667,1.6667,0,1.6546,1.6525,1.6571,1.6559,1.6537,1.6574,1.655,1.6565,1.6579,1.6571,1.6608,1.6599,1.6637,1.6632,1.6654,1.6635,1.6634,1.6645,1.6651,1.6642,1.6641,1.6642,1.6648,1.6664,1.6665,1.6665,1.6666,0,1.6452,1.6482,1.6464,1.6493,1.65,1.6482,1.6506,1.6496,1.6516,1.6505,1.6505,1.6536,1.6532,1.6561,1.6561,1.6576,1.6547,1.656,1.6543,1.6548,1.6517,1.652,1.6412,1.64,1.6507,1.6506,1.6505,0,1.6399,1.6384,1.6411,1.641,1.6419,1.6415,1.6417,1.6452,1.6452,1.6467,1.6455,1.6455,1.6457,1.6449,1.6471,1.6472,1.6486,1.6448,1.6487,1.6479,1.6487,1.6488,1.6487,1.644,1.6439,1.6438,1.6437,0,1.6302,1.6318,1.6319,1.6326,1.6327,1.6333,1.6342,1.6338,1.6377,1.6374,1.6372,1.6374,1.6376,1.6376,1.6382,1.6392,1.6421,1.6425,1.6419,1.641,1.6401,1.6407,1.6522,1.6427,1.6428,1.6429,1.643,1.643,1.6227,1.6217,1.6235,1.6236,1.6247,1.6255,1.6248,1.6268,1.6267,1.6273,1.6294,1.6289,1.6303,1.6315,1.6323,1.6318,1.6337,1.6327,1.6325,1.6322,1.6317,1.6401,1.6319,1.632,1.632,1.632,1.6321,0,1.6134,1.6148,1.6148,1.6161,1.6161,1.619,1.6202,1.62,1.6195,1.6207,1.6209,1.6208,1.6208,1.6231,1.6234,1.6226,1.6239,1.6226,1.6227,1.6229,1.63,1.6306,1.6215,1.6215,1.6215,1.6215,1.6215,1.6215,1.6085,1.607,1.6088,1.6078,1.6093,1.609,1.6094,1.6102,1.6112,1.6109,1.611,1.6126,1.6142,1.6147,1.6148,1.6155,1.6155,1.6137,1.6148,1.6214,1.6224,1.6234,1.624,1.6136,1.6136,1.6078,1.6077,1.6077]}]]